Voltar ao catálogo

STARLINK-32708

AtivoComunicaçõesVLEO
NORAD 62495·PAYLOAD·🇺🇸 United States

Lançado Jan 6, 2025 de Cape Canaveral Space Force Station

Loading…

Próximas Passagens (próximas 24 horas)

TLE

AtualizadoSource: CelesTrak SupGP

Época: Sep 14, 2026, 21:06 UTC

1 62495C 25003J   26257.87965278 -.00014890  00000+0 -53920-3 0  2572
2 62495  43.0006 300.6770 0001538 267.7538 103.5130 15.27593068    19

Acompanhe STARLINK-32708 em tempo real com AllMySat

Download on the App Store